CW6668 Weather Reports


time (UTC)temp
C
wind
direction
speed
KPH
gust
KPH
rain 1hr
cm
rain 24hr
cm
rain mn
cm
humidity
%
barometer
mb
20260504140105 16 207 3.2 16.1 0.00 0.00 0.00 44 1014.5
20260504081650 7 78 0.0 4.8 0.00 0.00 0.00 78 1015.7
20260504044533 6 256 1.6 3.2 0.00 0.00 0.00 74 1016.4
20260504043028 6 256 0.0 4.8 0.00 0.00 0.00 70 1016.2
20260504041526 6 256 0.0 1.6 0.00 0.00 0.00 72 1016.2
20260504040027 6 256 0.0 4.8 0.00 0.00 0.00 69 1016.2
20260504034524 6 256 0.0 1.6 0.00 0.00 0.00 72 1016.2
20260504033024 6 256 0.0 1.6 0.00 0.00 0.00 73 1016.1
20260504031524 6 256 0.0 3.2 0.00 0.00 0.00 72 1016.0
20260504030024 7 256 0.0 1.6 0.00 0.00 0.00 68 1015.9
20260504024531 6 256 1.6 4.8 0.00 0.00 0.00 72 1015.7
20260504023022 6 256 0.0 1.6 0.00 0.00 0.00 72 1015.6
20260504021525 7 256 0.0 3.2 0.00 0.00 0.00 65 1015.6
20260504020021 8 256 0.0 0.0 0.00 0.00 0.00 58 1015.6
20260504014520 8 256 0.0 1.6 0.00 0.00 0.00 57 1015.4
20260504013032 8 256 0.0 1.6 0.00 0.00 0.00 56 1015.4
20260504011521 9 256 0.0 1.6 0.00 0.00 0.00 51 1015.3
20260504010020 10 256 0.0 0.0 0.00 0.00 0.00 50 1015.3
20260504004522 10 256 0.0 1.6 0.00 0.00 0.00 47 1015.2
20260504003034 11 256 0.0 3.2 0.00 0.00 0.00 45 1014.9
20260504001519 12 256 0.0 1.6 0.00 0.00 0.00 44 1015.0
20260504000019 12 89 1.6 3.2 0.00 0.00 0.00 39 1014.7
20260503234517 13 272 0.0 4.8 0.00 0.00 0.00 38 1014.7
20260503233016 14 254 1.6 6.4 0.00 0.00 0.00 36 1014.6
20260503231517 15 269 3.2 16.1 0.00 0.00 0.00 34 1014.5
20260503230020 15 242 4.8 12.9 0.00 0.00 0.00 31 1014.4
20260503224526 16 289 3.2 16.1 0.00 0.00 0.00 34 1014.4
20260503223014 16 261 11.3 24.1 0.00 0.00 0.00 31 1014.5
20260503221513 16 263 6.4 16.1 0.00 0.00 0.00 31 1014.5
20260503220020 16 153 8.0 17.7 0.00 0.00 0.00 32 1014.5
20260503214514 17 296 4.8 17.7 0.00 0.00 0.00 33 1014.6
20260503213011 17 317 1.6 14.5 0.00 0.00 0.00 33 1014.6
20260503211513 16 284 8.0 27.4 0.00 0.00 0.00 30 1014.7
20260503210012 16 260 8.0 24.1 0.00 0.00 0.00 34 1014.7
20260503204509 16 246 9.7 19.3 0.00 0.00 0.00 29 1014.9
20260503203009 16 261 4.8 22.5 0.00 0.00 0.00 35 1014.8
20260503201509 16 252 9.7 22.5 0.00 0.00 0.00 36 1015.0
20260503200008 16 273 9.7 25.7 0.00 0.00 0.00 35 1015.4
20260503194504 16 293 9.7 25.7 0.00 0.00 0.00 33 1015.4
20260503193004 16 290 11.3 33.8 0.00 0.00 0.00 31 1015.6
20260503191503 16 259 12.9 27.4 0.00 0.00 0.00 36 1016.0
20260503190003 16 249 12.9 29.0 0.00 0.00 0.00 33 1016.1
20260503184624 16 313 9.7 27.4 0.00 0.00 0.00 39 1016.3
20260503183103 16 232 11.3 22.5 0.00 0.00 0.00 36 1016.5
20260503181558 15 303 6.4 22.5 0.00 0.00 0.00 39 1016.4
20260503180058 15 311 8.0 24.1 0.00 0.00 0.00 40 1016.6
20260503174554 14 269 9.7 27.4 0.00 0.00 0.00 40 1016.9
20260503173054 14 248 8.0 24.1 0.00 0.00 0.00 40 1017.0
20260503171610 13 321 9.7 24.1 0.00 0.00 0.00 39 1017.0
20260503170103 15 242 11.3 22.5 0.00 0.00 0.00 38 1017.2